• Em Portugal
  • Lista de países
  • Para 7 dias
  • Temperatura da água
  • Mapas de satélite
  • Mapa do tempo
  • Widgets de tempo
  • user-avatar
    Iniciar Sessão

    Previsão horária em Graz

    Hoje, 19 Junho, Terça-feira

    Tempo Temperatura Precipitação Vento Pressão Humidade
    00:00 +16°C° 0 mm 2 m/s 727 mmHg 83%
    01:00 +16°C° 0 mm 2 m/s 727 mmHg 84%
    02:00 +15°C° 0 mm 2 m/s 727 mmHg 86%
    03:00 +15°C° 0 mm 2 m/s 727 mmHg 87%
    04:00 +15°C° 0 mm 2 m/s 728 mmHg 88%
    05:00 +16°C° 0 mm 2 m/s 728 mmHg 82%
    06:00 +18°C° 0 mm 2 m/s 728 mmHg 75%
    07:00 +20°C° 0 mm 2 m/s 729 mmHg 68%
    08:00 +23°C° 0 mm 2 m/s 729 mmHg 61%
    09:00 +24°C° 0 mm 2 m/s 729 mmHg 54%
    10:00 +26°C° 0 mm 2 m/s 729 mmHg 47%
    11:00 +27°C° 0 mm 2 m/s 729 mmHg 46%
    12:00 +27°C° 0 mm 2 m/s 729 mmHg 45%
    13:00 +28°C° 0 mm 2 m/s 729 mmHg 44%
    14:00 +28°C° 0 mm 2 m/s 728 mmHg 46%
    15:00 +27°C° 0 mm 2 m/s 728 mmHg 47%
    16:00 +27°C° 0 mm 2 m/s 728 mmHg 49%
    17:00 +26°C° 0 mm 2 m/s 728 mmHg 57%
    18:00 +25°C° 0 mm 2 m/s 728 mmHg 64%
    19:00 +23°C° 0 mm 1 m/s 728 mmHg 72%
    20:00 +22°C° 0 mm 1 m/s 728 mmHg 77%
    21:00 +20°C° 0 mm 1 m/s 729 mmHg 82%
    22:00 +19°C° 0 mm 1 m/s 729 mmHg 87%
    23:00 +18°C° 0 mm 1 m/s 729 mmHg 87%

    Amanhã, 20 Junho, Quarta-feira

    Tempo Temperatura Precipitação Vento Pressão Humidade
    00:00 +18°C° 0 mm 1 m/s 729 mmHg 88%
    01:00 +17°C° 0 mm 2 m/s 729 mmHg 89%
    02:00 +16°C° 0 mm 1 m/s 729 mmHg 89%
    03:00 +16°C° 0 mm 1 m/s 729 mmHg 90%
    04:00 +16°C° 0 mm 1 m/s 729 mmHg 90%
    05:00 +19°C° 0 mm 1 m/s 729 mmHg 83%
    06:00 +21°C° 0 mm 1 m/s 729 mmHg 77%
    07:00 +23°C° 0 mm 1 m/s 729 mmHg 70%
    08:00 +24°C° 0 mm 1 m/s 729 mmHg 64%
    09:00 +26°C° 0 mm 2 m/s 729 mmHg 58%
    10:00 +27°C° 0 mm 2 m/s 729 mmHg 53%
    11:00 +28°C° 0,1 mm 2 m/s 729 mmHg 53%
    12:00 +28°C° 0,1 mm 2 m/s 729 mmHg 54%
    13:00 +28°C° 0,1 mm 2 m/s 728 mmHg 55%
    14:00 +28°C° 0,5 mm 2 m/s 728 mmHg 59%
    15:00 +28°C° 0,5 mm 2 m/s 728 mmHg 62%
    16:00 +27°C° 0,5 mm 2 m/s 727 mmHg 66%
    17:00 +26°C° 0,4 mm 1 m/s 727 mmHg 72%
    18:00 +25°C° 0,4 mm 1 m/s 727 mmHg 78%
    19:00 +24°C° 0,4 mm 1 m/s 727 mmHg 84%
    20:00 +23°C° 0,1 mm 1 m/s 727 mmHg 87%
    21:00 +22°C° 0,1 mm 1 m/s 727 mmHg 90%
    22:00 +20°C° 0,1 mm 1 m/s 727 mmHg 92%
    23:00 +20°C° 0 mm 1 m/s 727 mmHg 93%

    Depois de amanhã, 21 Junho, Quinta-feira

    Tempo Temperatura Precipitação Vento Pressão Humidade
    00:00 +20°C° 0 mm 1 m/s 727 mmHg 93%
    01:00 +19°C° 0 mm 1 m/s 727 mmHg 93%
    02:00 +19°C° 0 mm 1 m/s 726 mmHg 94%
    03:00 +19°C° 0 mm 1 m/s 726 mmHg 94%
    04:00 +19°C° 0 mm 1 m/s 726 mmHg 94%
    05:00 +20°C° 0 mm 1 m/s 726 mmHg 89%
    06:00 +22°C° 0 mm 1 m/s 725 mmHg 85%
    07:00 +22°C° 0 mm 0 m/s 725 mmHg 80%
    08:00 +26°C° 0 mm 1 m/s 725 mmHg 71%
    09:00 +28°C° 0 mm 1 m/s 725 mmHg 61%
    10:00 +30°C° 0 mm 1 m/s 725 mmHg 52%
    11:00 +30°C° 0 mm 2 m/s 724 mmHg 49%
    12:00 +31°C° 0 mm 2 m/s 724 mmHg 46%
    13:00 +32°C° 0 mm 2 m/s 723 mmHg 43%
    14:00 +32°C° 0,3 mm 2 m/s 723 mmHg 47%
    15:00 +31°C° 0,3 mm 2 m/s 722 mmHg 50%
    16:00 +31°C° 0,3 mm 2 m/s 722 mmHg 53%
    17:00 +29°C° 0,7 mm 2 m/s 722 mmHg 62%
    18:00 +27°C° 0,7 mm 1 m/s 721 mmHg 70%
    19:00 +26°C° 0,7 mm 1 m/s 721 mmHg 78%
    20:00 +24°C° 0,9 mm 1 m/s 722 mmHg 81%
    21:00 +23°C° 0,9 mm 1 m/s 722 mmHg 85%
    22:00 +21°C° 0,9 mm 2 m/s 722 mmHg 88%
    23:00 +20°C° 0,9 mm 2 m/s 722 mmHg 89%

    22 Junho, Sexta-feira

    Tempo Temperatura Precipitação Vento Pressão Humidade
    00:00 +20°C° 0,9 mm 2 m/s 722 mmHg 90%
    01:00 +19°C° 0,9 mm 2 m/s 722 mmHg 92%
    02:00 +19°C° 0,5 mm 2 m/s 723 mmHg 92%
    03:00 +18°C° 0,5 mm 2 m/s 723 mmHg 93%
    04:00 +17°C° 0,5 mm 2 m/s 723 mmHg 94%
    05:00 +17°C° 1,8 mm 2 m/s 723 mmHg 94%
    06:00 +16°C° 1,8 mm 2 m/s 723 mmHg 94%
    07:00 +15°C° 1,8 mm 2 m/s 724 mmHg 94%
    08:00 +15°C° 3,4 mm 2 m/s 724 mmHg 95%
    09:00 +14°C° 3,4 mm 2 m/s 724 mmHg 95%
    10:00 +13°C° 3,4 mm 2 m/s 725 mmHg 95%
    11:00 +13°C° 2,3 mm 2 m/s 725 mmHg 93%
    12:00 +13°C° 2,3 mm 2 m/s 725 mmHg 90%
    13:00 +13°C° 2,3 mm 1 m/s 725 mmHg 88%
    14:00 +14°C° 0,9 mm 2 m/s 726 mmHg 82%
    15:00 +15°C° 0,9 mm 2 m/s 726 mmHg 76%
    16:00 +16°C° 0,9 mm 2 m/s 726 mmHg 70%
    17:00 +15°C° 0 mm 2 m/s 726 mmHg 72%
    18:00 +15°C° 0 mm 2 m/s 726 mmHg 74%
    19:00 +14°C° 0 mm 2 m/s 726 mmHg 75%
    20:00 +13°C° 0 mm 1 m/s 727 mmHg 80%
    21:00 +11°C° 0 mm 1 m/s 727 mmHg 85%
    22:00 +10°C° 0 mm 1 m/s 727 mmHg 91%
    23:00 +10°C° 0 mm 1 m/s 727 mmHg 90%

    23 Junho, Sábado

    Tempo Temperatura Precipitação Vento Pressão Humidade
    00:00 +9°C° 0 mm 1 m/s 727 mmHg 90%
    01:00 +9°C° 0 mm 1 m/s 727 mmHg 90%
    02:00 +9°C° 0 mm 1 m/s 727 mmHg 90%
    03:00 +8°C° 0 mm 1 m/s 727 mmHg 90%
    04:00 +8°C° 0 mm 1 m/s 727 mmHg 90%
    05:00 +10°C° 0 mm 1 m/s 727 mmHg 82%
    06:00 +12°C° 0 mm 1 m/s 727 mmHg 75%
    07:00 +14°C° 0 mm 1 m/s 727 mmHg 67%
    08:00 +16°C° 0 mm 1 m/s 727 mmHg 59%
    09:00 +19°C° 0 mm 1 m/s 727 mmHg 51%
    10:00 +22°C° 0 mm 1 m/s 727 mmHg 43%
    11:00 +21°C° 0 mm 1 m/s 727 mmHg 44%
    12:00 +21°C° 0 mm 1 m/s 727 mmHg 44%
    13:00 +21°C° 0 mm 1 m/s 726 mmHg 45%
    14:00 +21°C° 0 mm 1 m/s 726 mmHg 46%
    15:00 +20°C° 0 mm 2 m/s 726 mmHg 48%
    16:00 +20°C° 0 mm 2 m/s 726 mmHg 49%
    17:00 +20°C° 0 mm 1 m/s 726 mmHg 56%
    18:00 +19°C° 0 mm 1 m/s 726 mmHg 64%
    19:00 +18°C° 0 mm 1 m/s 726 mmHg 71%
    20:00 +16°C° 0 mm 1 m/s 727 mmHg 74%
    21:00 +15°C° 0 mm 1 m/s 727 mmHg 77%
    22:00 +13°C° 0 mm 1 m/s 728 mmHg 79%
    23:00 +13°C° 0 mm 1 m/s 728 mmHg 81%

    24 Junho, Domingo

    Tempo Temperatura Precipitação Vento Pressão Humidade
    00:00 +13°C° 0 mm 1 m/s 728 mmHg 82%
    01:00 +13°C° 0 mm 1 m/s 728 mmHg 84%
    02:00 +12°C° 0 mm 1 m/s 728 mmHg 85%
    03:00 +12°C° 0 mm 1 m/s 728 mmHg 86%
    04:00 +11°C° 0 mm 1 m/s 728 mmHg 87%
    05:00 +12°C° 0 mm 1 m/s 728 mmHg 83%
    06:00 +13°C° 0 mm 1 m/s 728 mmHg 80%
    07:00 +14°C° 0 mm 1 m/s 728 mmHg 76%
    08:00 +16°C° 0 mm 1 m/s 728 mmHg 69%
    09:00 +19°C° 0 mm 1 m/s 728 mmHg 62%
    10:00 +21°C° 0 mm 1 m/s 728 mmHg 55%
    11:00 +21°C° 0 mm 1 m/s 728 mmHg 52%
    12:00 +22°C° 0 mm 1 m/s 727 mmHg 49%
    13:00 +23°C° 0 mm 1 m/s 727 mmHg 45%
    14:00 +23°C° 0 mm 1 m/s 727 mmHg 47%
    15:00 +21°C° 0 mm 2 m/s 727 mmHg 48%
    16:00 +21°C° 0 mm 2 m/s 726 mmHg 49%
    17:00 +20°C° 0 mm 2 m/s 726 mmHg 57%
    18:00 +20°C° 0 mm 1 m/s 726 mmHg 66%
    19:00 +18°C° 0 mm 1 m/s 726 mmHg 74%
    20:00 +16°C° 0 mm 1 m/s 727 mmHg 78%
    21:00 +15°C° 0 mm 1 m/s 727 mmHg 82%
    22:00 +13°C° 0 mm 0 m/s 727 mmHg 86%
    23:00 +12°C° 0 mm 0 m/s 727 mmHg 87%
    Mostrar mais